Flag for Turkey Weather past 2 weeks in Gaziantep, Turkey

41 °F


Feels Like: 41 °F
Forecast: 33 / 53 °F
Wind: 1 mph from North

Location: Gaziantep Airport

Current Time: Nov 30, 2015 at 3:32:12 AM

Latest Report: Nov 30, 2015 at 2:20 AM

Visibility: 1 mi

Pressure: 30.07 "Hg (27.07 "Hg at 856m altitude)

Humidity: 93%

Dew point: 39 °F

Location of GaziantepLocation

Historic Weather in Gaziantep — Graph


Gaziantep temperature yesterday

Maximum temperature yesterday: 63 °F (at 1:20 PM)
Minimum temperature yesterday: 43 °F (at 12:50 AM)
Average temperature yesterday: 52 °F

Past Weeks' High & Low Weather Summary

High72 °F (Nov 24, 1:50 PM)94% (Nov 17, 1:50 AM)30.27 "Hg (Nov 17, 1:50 AM)
Low30 °F (Nov 24, 4:20 AM)8% (Nov 18, 2:50 PM)29.92 "Hg (Nov 16, 12:20 PM)
Average50 °F56%30.11 "Hg
* Reported Nov 15 1:50 AM — Nov 30 1:50 AM, Gaziantep, Weather by CustomWeather, © 2015

Note: Actual official high and low records may vary slightly from our data, if they occured in-between our weather recording intervals... More about our weather records


Gaziantep weather history for previous 24 hours

Time TempWeatherWind HumidityBarometerVisibility
1:50 AM
Mon, Nov 30
41 °FFog.1 mph93%30.07 "Hg1 mi
1:20 AM43 °FFog.5 mph93%30.07 "Hg1 mi
12:50 AM43 °FFog.No wind93%30.07 "Hg2 mi
12:20 AM45 °FFog.2 mph93%30.09 "Hg2 mi
11:50 PM
Sun, Nov 29
45 °FFog.1 mph93%30.07 "Hg2 mi
11:20 PM45 °FPassing clouds.1 mph93%30.09 "Hg4 mi
10:50 PM45 °FPassing clouds.No wind93%30.09 "HgN/A
10:20 PM45 °FPassing clouds.2 mph93%30.09 "HgN/A
9:50 PM46 °FPassing clouds.1 mph87%30.09 "HgN/A
9:20 PM48 °FPassing clouds.3 mph87%30.07 "HgN/A
8:50 PM46 °FPassing clouds.1 mph93%30.07 "HgN/A
8:20 PM46 °FPassing clouds.5 mph93%30.07 "HgN/A
7:50 PM48 °FPassing clouds.No wind94%30.07 "HgN/A
7:20 PM48 °FPassing clouds.No wind87%30.07 "HgN/A
6:50 PM50 °FPassing clouds.No wind88%30.07 "HgN/A
6:20 PM50 °FPassing clouds.6 mph88%30.07 "HgN/A
5:50 PM52 °FPassing clouds.No wind77%30.04 "HgN/A
5:20 PM54 °FPassing clouds.5 mph77%30.04 "HgN/A
4:50 PM54 °FPassing clouds.5 mph77%30.04 "HgN/A
4:20 PM57 °FPassing clouds.6 mph67%30.04 "HgN/A
3:50 PM59 °FScattered clouds.6 mph63%30.04 "HgN/A
3:20 PM61 °FScattered clouds.8 mph59%30.04 "HgN/A
2:50 PM61 °FScattered clouds.9 mph59%30.01 "HgN/A
2:20 PM63 °FScattered clouds.9 mph52%30.01 "HgN/A
1:50 PM63 °FScattered clouds.10 mph52%30.01 "HgN/A
1:20 PM63 °FBroken clouds.10 mph52%30.01 "HgN/A
12:50 PM61 °FBroken clouds.13 mph59%30.01 "HgN/A
12:20 PM61 °FBroken clouds.14 mph59%30.01 "HgN/A
11:20 AM59 °FBroken clouds.14 mph68%30.01 "HgN/A
10:50 AM59 °FBroken clouds.12 mph72%30.04 "HgN/A
10:20 AM57 °FBroken clouds.13 mph77%30.04 "HgN/A
9:50 AM57 °FBroken clouds.10 mph77%30.04 "HgN/A
9:20 AM57 °FBroken clouds.12 mph77%30.04 "HgN/A
8:50 AM54 °FBroken clouds.3 mph82%30.04 "HgN/A
8:20 AM52 °FBroken clouds.No wind82%30.01 "HgN/A
6:50 AM46 °FFog.1 mph93%30.01 "Hg2 mi
6:20 AM46 °FFog.No wind93%30.01 "Hg2 mi
5:50 AM48 °FPassing clouds.No wind87%30.01 "Hg4 mi
5:20 AM48 °FPassing clouds.No wind94%30.01 "HgN/A
4:50 AM50 °FPassing clouds.6 mph88%29.98 "HgN/A
4:20 AM50 °FPassing clouds.3 mph94%30.01 "HgN/A
3:50 AM50 °FSprinkles. Passing clouds.3 mph94%29.98 "HgN/A
3:20 AM50 °FRain showers. Passing clouds.3 mph88%30.04 "Hg4 mi
Weather by CustomWeather, © 2015

See weather overviewHow to use our weather pages